Find TAVE

NORAD ID: 426 Int'l Des: 1962 B AL Owner: GSFC Country: US operational
LEOCIRCULARPOLAR

Aktuelle Ansicht

3D-Globus wird geladen...

Über TAVE

Beschreibung wird geladen...

Nächste Überflüge

Passes for default location (London). Set your location on the main map for personalized predictions.

Höhenverlauf

Loading altitude history...

Zweizeiliger Elementsatz

1 426U 62049B 26159.82623308 .00000060 00000-0 59529-4 0 9998
2 426 80.4710 276.3459 0017112 248.6423 230.6186 13.68759671178983
Epoch: 8. Juni 2026 • Age: 6 hours

Aktueller Status

Höhe 1016.0 km
Geschwindigkeit 7.35 km/s
Subsatellitenpunkt -43.74°S, 21.31°W
Typ other

Most Searched